Location: Peach Mountain Observatory
(42.3967°N, 83.9367°W)
Time: 20:09:03
(UTC-05:00)

S-56A Canister/Altair - Pass Details

Date: 29 January 2020
Orbit: 633 x 2500 km, 38.9° (Epoch: 26 February)

Event Time Altitude Azimuth Distance (km) Brightness Sun altitude
Rises 21:23:52 0° 263° (W) 4,188 12.1 -40.3°
Reaches altitude 10° 21:27:12 10° 260° (W) 2,935 11.1 -40.9°
Enters shadow 21:30:06 24° 254° (WSW) 1,859 9.8 -41.4°
Maximum altitude 21:33:48 62° 181° (S) 920 - -42.1°
Drops below altitude 10° 21:38:35 10° 101° (E) 2,147 - -42.9°
Sets 21:40:42 0° 98° (E) 2,980 - -43.3°
